Simultaneous Nadir Overpasses (SNOs) Predictions

Prediction of SNOs between GOES-14 and AQUA Satellite Orbit:

Table of predicted SNOs for the next 14.0 days since TLE Epoch: 10/5/2024
Index Date Time (GOES-14) GOES-14 Lat,Lon AQUA Lat,Lon Distance(km) Time Diff (sec)
1 10/06/2024 21:26:59 0.06,-108.48 0.42,-106.72 199.50 80
2 10/07/2024 09:46:46 -0.06,-108.55 0.60,-111.51 336.57 80
3 10/09/2024 09:26:12 -0.06,-108.55 -0.36,-107.13 161.69 80
4 10/09/2024 21:46:07 0.06,-108.48 -0.68,-111.95 394.44 80
5 10/11/2024 21:30:49 0.07,-108.48 0.28,-107.56 105.58 80
6 10/12/2024 09:50:33 -0.06,-108.56 0.73,-112.33 429.15 80
7 10/14/2024 09:29:50 -0.07,-108.56 -0.18,-107.91 72.67 80
8 10/14/2024 21:49:43 0.07,-108.48 -0.85,-112.72 482.91 80
9 10/16/2024 21:34:17 0.07,-108.48 0.13,-108.30 21.22 80
